User: anonymous   Login
Location: Blue Mountain Vista Observatory
(40.6992°N, 75.9422°W)
Time: 21:21:06
(UTC-04:00)
Language:

CZ-4C R/B - Orbit

View from above orbital plane
View from above orbital plane
View from above satellite
View from above satellite

Ground track
Ground track

The orbit data is extracted from the following two-line orbital elements,

1 36416U 10009D   16242.49534281 -.00000077  00000-0  14170-4 0  9993
2 36416  63.4437 326.0962 0358215 357.1148   2.7819 13.69499510324429
Epoch (UTC): 29 August 2016 11:53:17
Eccentricity: 0.0358215
inclination: 63.4437°
perigee height: 737 km
apogee height: 1266 km
right ascension of ascending node: 326.0962°
argument of perigee: 357.1148°
revolutions per day: 13.69499510
mean anomaly at epoch: 2.7819°
orbit number at epoch: 32442

The dashed part of the orbit path shows where the satellite is in the earth's shadow,  

DLR